This is the latest recevied weather packets stored in our database for station/object OK1FPA-13. If no packets are shown the sender has not sent any weather packets the latest 10 day(s).
| Time | Temp. | Humidity | Pressure | Rain* | Wind** | Luminosity | Snow |
|---|---|---|---|---|---|---|---|
| 1777893875 | 23.33° C | 36% | 1012.3 hPa | - | - | - | - |
| 1777893275 | 23.33° C | 36% | 1012.4 hPa | - | - | - | - |
| 1777892675 | 23.33° C | 36% | 1012.5 hPa | - | - | - | - |
| 1777892075 | 22.78° C | 36% | 1012.6 hPa | - | - | - | - |
| 1777891475 | 22.78° C | 36% | 1012.7 hPa | - | - | - | - |
| 1777890875 | 22.22° C | 38% | 1012.8 hPa | - | - | - | - |
| 1777890275 | 22.22° C | 37% | 1012.8 hPa | - | - | - | - |
| 1777889675 | 21.67° C | 38% | 1013 hPa | - | - | - | - |
| 1777889075 | 21.67° C | 38% | 1013.1 hPa | - | - | - | - |
| 1777888475 | 21.67° C | 37% | 1013.2 hPa | - | - | - | - |
| 1777887875 | 21.67° C | 37% | 1013.3 hPa | - | - | - | - |
| 1777887275 | 21.11° C | 38% | 1013.3 hPa | - | - | - | - |
| 1777886675 | 21.11° C | 40% | 1013.4 hPa | - | - | - | - |
| 1777886075 | 20.56° C | 40% | 1013.4 hPa | - | - | - | - |
| 1777885475 | 20.56° C | 38% | 1013.5 hPa | - | - | - | - |
| 1777884876 | 20° C | 39% | 1013.5 hPa | - | - | - | - |
| 1777884275 | 20° C | 40% | 1013.5 hPa | - | - | - | - |
| 1777883675 | 20° C | 42% | 1013.5 hPa | - | - | - | - |
| 1777883075 | 19.44° C | 42% | 1013.5 hPa | - | - | - | - |
| 1777882475 | 19.44° C | 42% | 1013.5 hPa | - | - | - | - |
| 1777881875 | 18.89° C | 42% | 1013.3 hPa | - | - | - | - |
| 1777881275 | 18.89° C | 42% | 1013.2 hPa | - | - | - | - |
| 1777880675 | 18.89° C | 42% | 1013.3 hPa | - | - | - | - |
| 1777880075 | 18.89° C | 42% | 1013.3 hPa | - | - | - | - |
| 1777879475 | 17.78° C | 43% | 1013.2 hPa | - | - | - | - |
* Rain since midnight (hover to see other rain measurements)
** Current wind speed in m/s (hover to see current wind gust speed)